STARLINK-35477

Last updated on Sun Dec 07 2025 00:02:05 GMT+0000 (Coordinated Universal Time)

1 66338U 25253V 25340.53909438 .00080690 00000+0 19165-2 0 9994 2 66338 43.0001 21.5774 0001256 245.4003 114.6722 15.40731489 5969
UTC large
Height (km)
Speed (km/s)
/
Latitude / Longitude
Inclination (degrees)
Orbital Period (minutes)
Azimuth
Elevation
Range (km)
Doppler Factor

Next 0 passes for location: London (51.5072 / 0.1276)

Sorry there are no passes over London.